Location: New Canada
(47.1017°N, 68.5042°W)
Time: 15:45:19
(UTC+00:00)

KKS-1 - Pass Details

Date: 03 May 2024
Orbit: 628 x 639 km, 98.1° (Epoch: 21 May)

Event Time Altitude Azimuth Distance (km) Brightness Sun altitude
Rises 05:41:50 0° 354° (N) 2,956 ? -25.1°
Reaches altitude 10° 05:45:55 10° 317° (NW) 2,039 ? -24.9°
Maximum altitude 05:46:52 11° 304° (NW) 1,994 ? -24.8°
Drops below altitude 10° 05:47:50 10° 292° (WNW) 2,035 ? -24.7°
Enters shadow 05:48:09 10° 288° (WNW) 2,066 ? -24.7°
